This demonstration page uses our WeatherBlox Daily Observations layout. Learn more.

Left ArrowRight Arrow

41.86663, -103.66717

Hourly Observations for July 31, 2018

Temp ( °F °C ) Dew Point ( °F °C ) Humidity (%) Winds ( mph kmh ) Pressure ( in mb ) Visibility ( mi km ) Precip ( " mm )
12:53 am 00:53 Clear 54 12.2 53 11.7 97 97 E 3 6 30.18 1022 10 16.0934 N/A
1:53 am 01:53 Clear 53 11.7 52 11.1 96 96 E 7 11 30.16 1022 10 16.0934 N/A
2:53 am 02:53 Clear 53 11.7 52 11.1 96 96 E 5 7 30.16 1021 10 16.0934 N/A
3:53 am 03:53 Clear 52 11.1 51 10.6 97 97 NE 6 9 30.16 1021 10 16.0934 N/A
4:53 am 04:53 Clear 51 10.6 50 10 96 96 ENE 6 9 30.14 1021 10 16.0934 N/A
5:53 am 05:53 Sunny 52 11.1 51 10.6 97 97 N N/A 30.15 1021 10 16.0934 N/A
6:53 am 06:53 Sunny 57 13.9 54 12.2 90 90 E 3 6 30.14 1021 10 16.0934 N/A
7:53 am 07:53 Sunny 59 15 56 13.3 90 90 ESE 6 9 30.14 1021 10 16.0934 N/A
8:53 am 08:53 Sunny 65 18.3 57 13.9 76 76 ESE 6 9 30.12 1020 10 16.0934 N/A
9:53 am 09:53 Sunny 70 21.1 58 14.4 66 66 VRB 5 7 30.11 1020 10 16.0934 N/A
10:53 am 10:53 Sunny 77 25 58 14.4 52 52 VRB 3 6 30.08 1019 10 16.0934 N/A
11:53 am 11:53 Sunny 80 26.7 57 13.9 45 45 VRB 7 11 30.06 1018 10 16.0934 N/A
12:53 pm 12:53 Sunny 83 28.3 54 12.2 37 37 W 3 6 30.04 1017 10 16.0934 N/A
1:53 pm 13:53 Sunny 84 28.9 55 12.8 37 37 N N/A 30.03 1017 10 16.0934 N/A
2:53 pm 14:53 Sunny 84 28.9 50 10 31 31 VRB 3 6 30.02 1017 10 16.0934 N/A
3:53 pm 15:53 Sunny 86 30 53 11.7 32 32 N N/A 30.01 1016 10 16.0934 N/A
4:53 pm 16:53 Sunny 86 30 54 12.2 33 33 ESE 7 11 30 1016 10 16.0934 N/A
5:53 pm 17:53 Sunny 85 29.4 55 12.8 36 36 E 6 9 29.99 1016 10 16.0934 N/A
6:53 pm 18:53 Sunny 82 27.8 59 15 46 46 E 5 7 29.98 1015 10 16.0934 N/A
7:53 pm 19:53 Sunny 73 22.8 60 15.6 64 64 ENE 8 13 30.01 1016 10 16.0934 N/A
8:53 pm 20:53 Clear 67 19.4 60 15.6 79 79 ENE 7 11 30.03 1017 10 16.0934 N/A
9:53 pm 21:53 Clear 65 18.3 59 15 81 81 VRB 6 9 30.04 1017 10 16.0934 N/A
10:53 pm 22:53 Clear 63 17.2 57 13.9 81 81 ENE 7 11 30.03 1017 10 16.0934 N/A
11:53 pm 23:53 Clear 66 18.9 56 13.3 70 70 N N/A 30.02 1017 10 16.0934 N/A

Powered by AerisWeather